CW5333 Weather Reports


time (UTC)temp
F
wind
direction
speed
knots
gust
knots
rain 1hr
in
rain 24hr
in
rain mn
in
humidity
%
barometer
mb
20260906182306 102 282 2.6 5.2 0.00 0.00 0.00 36 1013.4
20260906181804 101 54 0.9 4.3 0.00 0.00 0.00 38 1013.5
20260906181303 100 304 1.7 7.8 0.00 0.00 0.00 38 1013.6
20260906180804 99 154 4.3 7.8 0.00 0.00 0.00 38 1013.7
20260906175803 98 138 4.3 6.1 0.00 0.00 0.00 39 1014.0
20260906175306 98 118 2.6 6.1 0.00 0.00 0.00 39 1014.0
20260906174803 98 44 2.6 4.3 0.00 0.00 0.00 40 1014.1
20260906174304 98 126 0.9 5.2 0.00 0.00 0.00 40 1014.3
20260906173803 98 67 2.6 6.1 0.00 0.00 0.00 40 1014.3
20260906173304 98 118 4.3 6.1 0.00 0.00 0.00 39 1014.4
20260906172804 99 33 2.6 6.1 0.00 0.00 0.00 40 1014.5
20260906171804 100 162 2.6 7.0 0.00 0.00 0.00 39 1014.5
20260906170803 99 143 3.5 7.8 0.00 0.00 0.00 40 1014.6
20260906165803 99 189 0.9 5.2 0.00 0.00 0.00 39 1014.8
20260906165306 98 119 4.3 7.0 0.00 0.00 0.00 41 1014.8
20260906164803 98 64 5.2 7.0 0.00 0.00 0.00 41 1014.9
20260906164304 98 103 2.6 6.1 0.00 0.00 0.00 42 1014.9
20260906163804 97 92 2.6 5.2 0.00 0.00 0.00 42 1015.0
20260906163304 97 162 2.6 5.2 0.00 0.00 0.00 43 1015.1
20260906162804 96 78 1.7 6.1 0.00 0.00 0.00 43 1015.0
20260906162306 96 97 4.3 7.0 0.00 0.00 0.00 44 1015.0
20260906161303 96 57 4.3 7.8 0.00 0.00 0.00 46 1015.0
20260906160804 96 118 2.6 6.1 0.00 0.00 0.00 45 1015.0
20260906160304 95 116 2.6 6.1 0.00 0.00 0.00 45 1015.0
20260906155306 94 124 4.3 6.1 0.00 0.00 0.00 46 1015.0
20260906154803 94 98 3.5 6.1 0.00 0.00 0.00 47 1015.0
20260906154304 93 122 4.3 7.0 0.00 0.00 0.00 48 1015.0
20260906153803 93 93 4.3 6.1 0.00 0.00 0.00 48 1015.0
20260906152804 92 129 4.3 6.1 0.00 0.00 0.00 50 1015.0
20260906152306 92 81 4.3 6.1 0.00 0.00 0.00 49 1015.0
20260906151804 92 102 4.3 7.0 0.00 0.00 0.00 50 1014.9
20260906151304 92 70 4.3 7.8 0.00 0.00 0.00 51 1014.9
20260906150804 92 85 2.6 6.1 0.00 0.00 0.00 51 1014.9
20260906150303 91 161 2.6 5.2 0.00 0.00 0.00 51 1014.9
20260906145804 91 107 1.7 6.1 0.00 0.00 0.00 52 1014.9
20260906145306 90 71 2.6 5.2 0.00 0.00 0.00 52 1014.9
20260906144804 90 102 3.5 6.1 0.00 0.00 0.00 52 1014.9
20260906144304 89 134 2.6 5.2 0.00 0.00 0.00 54 1014.9
20260906143803 89 64 2.6 5.2 0.00 0.00 0.00 55 1014.9
20260906142803 88 70 4.3 5.2 0.00 0.00 0.00 56 1014.9
20260906142306 88 70 2.6 5.2 0.00 0.00 0.00 56 1014.9
20260906141304 87 81 2.6 5.2 0.00 0.00 0.00 58 1015.0
20260906140303 86 60 2.6 5.2 0.00 0.00 0.00 61 1014.9
20260906135804 85 43 2.6 6.1 0.00 0.00 0.00 62 1014.8
20260906134303 84 56 2.6 5.2 0.00 0.00 0.00 64 1014.8
20260906133804 84 59 2.6 4.3 0.00 0.00 0.00 64 1014.8
20260906133304 84 52 2.6 5.2 0.00 0.00 0.00 65 1014.7
20260906132804 83 71 2.6 7.0 0.00 0.00 0.00 66 1014.7
20260906132306 83 63 2.6 5.2 0.00 0.00 0.00 66 1014.6
20260906131304 81 39 1.7 2.6 0.00 0.00 0.00 69 1014.6
20260906130804 81 61 1.7 4.3 0.00 0.00 0.00 70 1014.6
20260906130304 80 55 2.6 6.1 0.00 0.00 0.00 70 1014.5
20260906125803 80 57 3.5 6.1 0.00 0.00 0.00 71 1014.4
20260906125306 80 53 4.3 5.2 0.00 0.00 0.00 71 1014.4
20260906124804 79 58 3.5 5.2 0.00 0.00 0.00 72 1014.3
20260906124303 79 66 1.7 2.6 0.00 0.00 0.00 72 1014.3
20260906123804 78 56 1.7 2.6 0.00 0.00 0.00 73 1014.3
20260906123304 78 48 1.7 2.6 0.00 0.00 0.00 74 1014.2
20260906122803 78 33 1.7 2.6 0.00 0.00 0.00 74 1014.2
20260906122306 77 44 0.9 1.7 0.00 0.00 0.00 74 1014.1
20260906121808 77 48 2.6 4.3 0.00 0.00 0.00 74 1013.9
20260906120803 76 58 2.6 4.3 0.00 0.00 0.00 74 1013.8
20260906120304 76 39 1.7 2.6 0.00 0.00 0.00 76 1013.7
20260906115804 76 46 1.7 1.7 0.00 0.00 0.00 77 1013.7
20260906115306 76 28 0.0 1.7 0.00 0.00 0.00 77 1013.7
20260906114804 76 46 0.9 1.7 0.00 0.00 0.00 77 1013.6
20260906114303 76 39 0.9 1.7 0.00 0.00 0.00 77 1013.6
20260906113303 75 36 1.7 2.6 0.00 0.00 0.00 78 1013.6
20260906112803 75 44 1.7 2.6 0.00 0.00 0.00 78 1013.7
20260906112306 76 29 0.0 1.7 0.00 0.00 0.00 78 1013.7
20260906111304 76 27 0.0 0.0 0.00 0.00 0.00 76 1013.7
20260906110304 77 27 0.9 1.7 0.00 0.00 0.00 75 1013.7
20260906105803 77 32 0.9 1.7 0.00 0.00 0.00 75 1013.7
20260906105306 77 37 0.9 1.7 0.00 0.00 0.00 75 1013.7
20260906104804 77 19 0.9 1.7 0.00 0.00 0.00 74 1013.7
20260906104304 77 31 1.7 2.6 0.00 0.00 0.00 74 1013.7
20260906103803 77 36 1.7 2.6 0.00 0.00 0.00 74 1013.7
20260906103303 77 32 1.7 2.6 0.00 0.00 0.00 74 1013.6
20260906102306 76 46 1.7 2.6 0.00 0.00 0.00 76 1013.6
20260906101803 76 35 1.7 1.7 0.00 0.00 0.00 76 1013.6
20260906100804 77 48 0.9 1.7 0.00 0.00 0.00 76 1013.6
20260906095804 77 29 0.9 1.7 0.00 0.00 0.00 76 1013.5
20260906095306 77 41 1.7 1.7 0.00 0.00 0.00 76 1013.5
20260906094303 77 42 0.0 1.7 0.00 0.00 0.00 75 1013.5
20260906093804 77 24 0.0 1.7 0.00 0.00 0.00 75 1013.5
20260906093303 77 22 0.0 0.9 0.00 0.00 0.00 75 1013.5
20260906092803 77 49 1.7 2.6 0.00 0.00 0.00 75 1013.5
20260906092306 78 27 0.9 1.7 0.00 0.00 0.00 74 1013.3
20260906091304 78 45 0.9 1.7 0.00 0.00 0.00 74 1013.3
20260906090804 78 39 0.9 1.7 0.00 0.00 0.00 73 1013.3
20260906090304 78 42 1.7 2.6 0.00 0.00 0.00 73 1013.2
20260906085803 79 37 0.9 1.7 0.00 0.00 0.00 72 1013.2
20260906085306 79 41 0.9 1.7 0.00 0.00 0.00 72 1013.2
20260906084804 80 36 0.9 1.7 0.00 0.00 0.00 71 1013.2
20260906084304 80 46 0.0 0.9 0.00 0.00 0.00 69 1013.2
20260906083804 80 39 0.9 2.6 0.00 0.00 0.00 69 1013.2
20260906082804 80 48 0.9 1.7 0.00 0.00 0.00 68 1013.2
20260906082306 81 40 1.7 2.6 0.00 0.00 0.00 68 1013.2
20260906081803 81 46 1.7 2.6 0.00 0.00 0.00 67 1013.2
20260906081304 81 38 1.7 2.6 0.00 0.00 0.00 67 1013.2
20260906080804 81 46 1.7 2.6 0.00 0.00 0.00 67 1013.1
20260906080303 81 44 1.7 2.6 0.00 0.00 0.00 67 1013.1
20260906075804 81 44 1.7 4.3 0.00 0.00 0.00 67 1013.0
20260906074804 81 45 1.7 4.3 0.00 0.00 0.00 67 1013.0
20260906074304 81 44 2.6 4.3 0.00 0.00 0.00 67 1013.1
20260906073804 81 41 2.6 4.3 0.00 0.00 0.00 67 1013.0
20260906073303 81 45 1.7 2.6 0.00 0.00 0.00 66 1013.0
20260906072804 81 43 2.6 2.6 0.00 0.00 0.00 66 1013.0
20260906072306 81 42 2.6 2.6 0.00 0.00 0.00 66 1013.0
20260906071304 81 38 2.6 2.6 0.00 0.00 0.00 66 1013.0
20260906070804 81 47 1.7 2.6 0.00 0.00 0.00 66 1013.0
20260906070304 81 50 2.6 4.3 0.00 0.00 0.00 67 1013.0
20260906065804 81 44 1.7 4.3 0.00 0.00 0.00 67 1013.1
20260906065305 80 39 2.6 4.3 0.00 0.00 0.00 67 1013.1
20260906064804 80 36 2.6 4.3 0.00 0.00 0.00 68 1013.2
20260906064304 80 46 1.7 4.3 0.00 0.00 0.00 69 1013.2
20260906063804 80 32 1.7 2.6 0.00 0.00 0.00 69 1013.2
20260906063304 80 32 1.7 2.6 0.00 0.00 0.00 69 1013.3
20260906062803 80 33 1.7 2.6 0.00 0.00 0.00 69 1013.3
20260906062306 80 39 1.7 2.6 0.00 0.00 0.00 69 1013.4
20260906061804 80 29 1.7 1.7 0.00 0.00 0.00 68 1013.5
20260906061304 81 49 0.9 1.7 0.00 0.00 0.00 67 1013.5
20260906060803 81 65 0.0 1.7 0.00 0.00 0.00 66 1013.5
20260906060304 82 38 0.9 1.7 0.00 0.00 0.00 65 1013.6
20260906055804 82 24 0.9 2.6 0.00 0.00 0.00 64 1013.6
20260906055306 82 43 0.9 2.6 0.00 0.00 0.00 64 1013.6
20260906054804 82 36 1.7 2.6 0.00 0.00 0.00 63 1013.6
20260906054304 83 37 1.7 2.6 0.00 0.00 0.00 63 1013.6
20260906053804 83 39 1.7 2.6 0.00 0.00 0.00 63 1013.6
20260906053304 83 35 1.7 2.6 0.00 0.00 0.00 63 1013.6
20260906052804 83 42 1.7 2.6 0.00 0.00 0.00 63 1013.6
20260906051804 83 43 1.7 2.6 0.00 0.00 0.00 63 1013.6
20260906051304 83 44 1.7 2.6 0.00 0.00 0.00 63 1013.6
20260906045804 83 36 1.7 4.3 0.00 0.00 0.00 62 1013.5
20260906045306 83 45 1.7 1.7 0.00 0.00 0.00 62 1013.5
20260906044804 83 46 1.7 2.6 0.00 0.00 0.00 62 1013.5
20260906044304 83 40 1.7 2.6 0.00 0.00 0.00 62 1013.4
20260906043305 84 40 2.6 2.6 0.00 0.00 0.00 62 1013.5
20260906042804 84 28 1.7 2.6 0.00 0.00 0.00 61 1013.5
20260906042306 84 54 1.7 2.6 0.00 0.00 0.00 61 1013.5
20260906041803 84 46 1.7 2.6 0.00 0.00 0.00 60 1013.5
20260906041304 84 39 1.7 2.6 0.00 0.00 0.00 60 1013.5
20260906040804 84 47 1.7 2.6 0.00 0.00 0.00 60 1013.5
20260906040303 85 46 1.7 2.6 0.00 0.00 0.00 60 1013.5
20260906035803 85 47 1.7 2.6 0.00 0.00 0.00 59 1013.6
20260906034803 85 42 1.7 4.3 0.00 0.00 0.00 58 1013.5
20260906034304 85 49 1.7 4.3 0.00 0.00 0.00 58 1013.4
20260906033803 85 50 2.6 2.6 0.00 0.00 0.00 57 1013.4
20260906033304 86 48 2.6 2.6 0.00 0.00 0.00 56 1013.4
20260906032804 86 52 1.7 4.3 0.00 0.00 0.00 55 1013.3
20260906032306 86 56 2.6 4.3 0.00 0.00 0.00 55 1013.2
20260906031804 86 59 1.7 4.3 0.00 0.00 0.00 54 1013.2
20260906031304 86 55 1.7 4.3 0.00 0.00 0.00 53 1013.1
20260906030804 85 61 1.7 4.3 0.00 0.00 0.00 53 1013.0
20260906030304 85 47 2.6 5.2 0.00 0.00 0.00 54 1012.9
20260906025804 85 47 2.6 4.3 0.00 0.00 0.00 55 1012.8
20260906025306 85 29 1.7 2.6 0.00 0.00 0.00 53 1012.7
20260906024804 85 34 1.7 2.6 0.00 0.00 0.00 54 1012.6
20260906024303 85 41 1.7 2.6 0.00 0.00 0.00 54 1012.6
20260906023804 85 34 1.7 2.6 0.00 0.00 0.00 54 1012.6
20260906023303 85 33 1.7 2.6 0.00 0.00 0.00 55 1012.5
20260906022803 85 43 1.7 1.7 0.00 0.00 0.00 56 1012.5
20260906022307 85 36 1.7 1.7 0.00 0.00 0.00 57 1012.5
20260906021304 85 31 2.6 2.6 0.00 0.00 0.00 55 1012.3
20260906020803 85 32 2.6 2.6 0.00 0.00 0.00 56 1012.1
20260906020303 85 41 2.6 2.6 0.00 0.00 0.00 58 1012.1
20260906015804 85 33 1.7 2.6 0.00 0.00 0.00 59 1012.0
20260906015306 85 29 1.7 2.6 0.00 0.00 0.00 58 1012.0
20260906014304 85 32 2.6 4.3 0.00 0.00 0.00 58 1011.9
20260906013804 85 40 1.7 4.3 0.00 0.00 0.00 57 1011.9
20260906013304 85 33 1.7 4.3 0.00 0.00 0.00 58 1011.8
20260906012306 86 30 2.6 2.6 0.00 0.00 0.00 58 1011.6
20260906011804 86 28 1.7 2.6 0.00 0.00 0.00 58 1011.6
20260906010804 88 34 0.9 1.7 0.00 0.00 0.00 55 1011.6
20260906004804 91 22 0.9 1.7 0.00 0.00 0.00 51 1011.5
20260906004304 92 31 0.9 1.7 0.00 0.00 0.00 49 1011.5
20260906003803 94 27 1.7 1.7 0.00 0.00 0.00 48 1011.6
20260906003303 95 28 0.9 1.7 0.00 0.00 0.00 44 1011.6
20260906002804 96 39 0.0 1.7 0.00 0.00 0.00 42 1011.5
20260906002306 97 56 0.9 1.7 0.00 0.00 0.00 41 1011.6
20260906001803 98 43 1.7 2.6 0.00 0.00 0.00 40 1011.7
20260906001304 99 62 0.9 1.7 0.00 0.00 0.00 39 1011.6
20260906000804 100 108 0.9 2.6 0.00 0.00 0.00 37 1011.6
20260906000304 101 130 1.7 2.6 0.00 0.00 0.00 36 1011.6
20260905235306 101 147 0.0 2.6 0.00 0.00 0.00 35 1011.7
20260905234303 101 108 0.9 4.3 0.00 0.00 0.00 35 1011.6
20260905233804 101 120 1.7 4.3 0.00 0.00 0.00 34 1011.6
20260905233303 101 106 2.6 4.3 0.00 0.00 0.00 34 1011.6
20260905232803 102 122 2.6 5.2 0.00 0.00 0.00 34 1011.6
20260905232306 102 105 0.9 2.6 0.00 0.00 0.00 34 1011.6
20260905231803 102 178 1.7 4.3 0.00 0.00 0.00 34 1011.6
20260905231303 102 144 1.7 6.1 0.00 0.00 0.00 33 1011.6
20260905230304 102 126 0.9 4.3 0.00 0.00 0.00 34 1011.6
20260905225804 102 174 4.3 7.0 0.00 0.00 0.00 34 1011.6
20260905225306 102 35 1.7 4.3 0.00 0.00 0.00 34 1011.6
20260905224804 102 142 2.6 5.2 0.00 0.00 0.00 35 1011.5
20260905224303 102 114 3.5 6.1 0.00 0.00 0.00 34 1011.4
20260905223804 102 113 1.7 4.3 0.00 0.00 0.00 35 1011.4
20260905223304 103 188 4.3 6.1 0.00 0.00 0.00 34 1011.5
20260905222306 103 207 2.6 5.2 0.00 0.00 0.00 34 1011.5
20260905221804 104 77 2.6 4.3 0.00 0.00 0.00 33 1011.5
20260905221304 103 225 1.7 4.3 0.00 0.00 0.00 33 1011.5
20260905220804 103 264 1.7 7.0 0.00 0.00 0.00 34 1011.6
20260905220303 103 295 1.7 4.3 0.00 0.00 0.00 34 1011.6
20260905215804 103 221 4.3 7.8 0.00 0.00 0.00 34 1011.6
20260905214804 102 129 0.9 6.1 0.00 0.00 0.00 34 1011.7
20260905214304 102 148 4.3 7.0 0.00 0.00 0.00 34 1011.8
20260905213304 101 113 3.5 6.1 0.00 0.00 0.00 35 1011.9
20260905212804 100 310 1.7 6.1 0.00 0.00 0.00 36 1011.9
20260905212306 100 194 5.2 7.8 0.00 0.00 0.00 36 1012.0
20260905211804 101 216 0.9 2.6 0.00 0.00 0.00 36 1012.2
20260905211303 102 137 0.9 2.6 0.00 0.00 0.00 35 1012.2
20260905210304 103 201 1.7 2.6 0.00 0.00 0.00 34 1012.3
20260905205804 103 315 2.6 4.3 0.00 0.00 0.00 34 1012.3
20260905205306 102 124 1.7 5.2 0.00 0.00 0.00 34 1012.4
20260905204804 101 172 1.7 6.1 0.00 0.00 0.00 35 1012.4
20260905204304 101 188 4.3 6.1 0.00 0.00 0.00 36 1012.4
20260905203804 101 121 4.3 7.8 0.00 0.00 0.00 36 1012.5
20260905203304 101 153 4.3 10.4 0.00 0.00 0.00 36 1012.5
20260905202803 101 127 2.6 8.7 0.00 0.00 0.00 35 1012.6
20260905202306 101 187 2.6 7.0 0.00 0.00 0.00 36 1012.6
20260905201804 101 61 4.3 6.1 0.00 0.00 0.00 35 1012.7
20260905201303 102 94 4.3 7.0 0.00 0.00 0.00 34 1012.8
20260905200803 101 210 1.7 5.2 0.00 0.00 0.00 36 1012.8
20260905200303 101 249 1.7 6.1 0.00 0.00 0.00 36 1012.9
20260905195803 102 176 1.7 6.1 0.00 0.00 0.00 35 1012.9
20260905195306 101 61 1.7 4.3 0.00 0.00 0.00 35 1013.0
20260905194304 102 328 3.5 7.0 0.00 0.00 0.00 36 1013.0
20260905193803 101 212 4.3 8.7 0.00 0.00 0.00 35 1013.1
20260905193303 101 214 3.5 7.8 0.00 0.00 0.00 36 1013.1
20260905192803 101 249 2.6 6.1 0.00 0.00 0.00 36 1013.1
20260905192306 101 200 4.3 7.8 0.00 0.00 0.00 36 1013.2
20260905191803 101 219 3.5 7.8 0.00 0.00 0.00 38 1013.3
20260905191304 101 213 2.6 7.8 0.00 0.00 0.00 38 1013.3
20260905190804 101 43 1.7 4.3 0.00 0.00 0.00 36 1013.5
20260905190304 101 169 1.7 6.1 0.00 0.00 0.00 36 1013.5
20260905185804 101 206 1.7 5.2 0.00 0.00 0.00 36 1013.6
20260905185306 100 128 1.7 6.1 0.00 0.00 0.00 38 1013.7
20260905184804 99 155 3.5 7.0 0.00 0.00 0.00 38 1013.7
20260905184304 98 233 2.6 6.1 0.00 0.00 0.00 40 1013.8
20260905183304 97 294 2.6 5.2 0.00 0.00 0.00 42 1014.0
20260905182803 97 256 2.6 5.2 0.00 0.00 0.00 43 1014.1